Location: Chefe Valiua
(16.5342°S, 37.2214°E)
Time: 00:01:57
(UTC+00:00)

Aureole 3 Rocket - Pass Details

Date: 19 January 2021
Orbit: 398 x 1740 km, 82.5° (Epoch: 07 March)

Event Time Altitude Azimuth Distance (km) Brightness Sun altitude
Exits shadow 17:03:18 - 23° (NNE) 2,104 5.3 -12.4°
Reaches altitude 10° 17:03:24 10° 24° (NNE) 2,069 5.3 -12.4°
Maximum altitude 17:07:41 39° 93° (E) 1,205 4.1 -13.3°
Drops below altitude 10° 17:13:36 10° 159° (SSE) 2,868 6.5 -14.6°
Sets 17:16:49 0° 165° (SSE) 4,067 7.4 -15.3°
